This is the latest recevied weather packets stored in our database for station/object OK2JF-6. If no packets are shown the sender has not sent any weather packets the latest 10 day(s).
| Time | Temp. | Humidity | Pressure | Rain* | Wind** | Luminosity | Snow |
|---|---|---|---|---|---|---|---|
| 1777467843 | 10° C | 38% | 1095.6 hPa | 0 mm | - | 378 W/m² | - |
| 1777467783 | 10° C | 39% | 1095.7 hPa | 0 mm | - | 323 W/m² | - |
| 1777467123 | 10.56° C | 40% | 1095.6 hPa | 0 mm | - | 381 W/m² | - |
| 1777466103 | 10° C | 39% | 1095.7 hPa | 0 mm | - | 397 W/m² | - |
| 1777465803 | 10.56° C | 40% | 1095.7 hPa | 0 mm | - | 161 W/m² | - |
| 1777465099 | 10.56° C | 42% | 1095.5 hPa | 0 mm | - | 307 W/m² | - |
| 1777464783 | 10.56° C | 40% | 1095.4 hPa | 0 mm | - | 45 W/m² | - |
| 1777464003 | 10.56° C | 41% | 1095.4 hPa | 0 mm | - | 321 W/m² | - |
| 1777463943 | 10.56° C | 41% | 1095.4 hPa | 0 mm | - | 405 W/m² | - |
| 1777463463 | 10.56° C | 42% | 1095.2 hPa | 0 mm | - | 460 W/m² | - |
| 1777463403 | 10.56° C | 42% | 1095.5 hPa | 0 mm | - | 461 W/m² | - |
| 1777462503 | 11.67° C | 39% | 1095.4 hPa | 0 mm | - | 475 W/m² | - |
| 1777462383 | 12.22° C | 39% | 1095.5 hPa | 0 mm | - | 475 W/m² | - |
| 1777462143 | 12.22° C | 39% | 1095.6 hPa | 0 mm | - | 484 W/m² | - |
| 1777462083 | 12.22° C | 38% | 1095.3 hPa | 0 mm | - | 486 W/m² | - |
| 1777462023 | 12.22° C | 39% | 1095.5 hPa | 0 mm | - | 486 W/m² | - |
| 1777461723 | 12.22° C | 38% | 1095.7 hPa | 0 mm | - | 491 W/m² | - |
| 1777461543 | 12.22° C | 37% | 1095.6 hPa | 0 mm | - | 490 W/m² | - |
| 1777461123 | 12.22° C | 38% | 1095.6 hPa | 0 mm | - | 492 W/m² | - |
| 1777460883 | 11.67° C | 37% | 1095.6 hPa | 0 mm | - | 492 W/m² | - |
| 1777460544 | 11.67° C | 36% | 1095.7 hPa | 0 mm | - | 496 W/m² | - |
| 1777460344 | 12.22° C | 35% | 1095.5 hPa | 0 mm | - | 496 W/m² | - |
| 1777460166 | 12.22° C | 35% | 1095.8 hPa | 0 mm | - | 497 W/m² | - |
| 1777459984 | 12.22° C | 35% | 1095.7 hPa | 0 mm | - | 497 W/m² | - |
| 1777459684 | 12.22° C | 34% | 1095.6 hPa | 0 mm | - | 349 W/m² | - |
* Rain latest hour (hover to see other rain measurements)
** Current wind speed in m/s (hover to see current wind gust speed)